KLM38YS EGLL-LFPG

Flight info

Callsign KLM38YS
Flight time 0h 39m
Altitude 25000
Route MODMI M185 MID UL612 BOGNA DCT HARDY UM605 BIBAX
Aircraft A320/M-SDE3FGHIRWY/LB1

Departure

Time 2026-05-07 13:28
Airport London Heathrow Airport (EGLL)

Arrival

Time 2026-05-07 14:07
Airport Charles de Gaulle International Airport (LFPG)
Time Latitude Longitude Altitude Speed Heading
2026-05-07 13:09 51.47370 -0.47033 87 ft 0 kts 270°
2026-05-07 13:14 51.47370 -0.47017 87 ft 4 kts 268°
2026-05-07 13:14 51.47372 -0.46974 88 ft 4 kts 261°
2026-05-07 13:14 51.47378 -0.46932 87 ft 4 kts 251°
2026-05-07 13:15 51.47389 -0.46895 90 ft 4 kts 221°
2026-05-07 13:15 51.47405 -0.46882 90 ft 0 kts 167°
2026-05-07 13:17 51.47392 -0.46877 87 ft 4 kts 167°
2026-05-07 13:17 51.47389 -0.46876 87 ft 0 kts 167°
2026-05-07 13:19 51.47381 -0.46874 87 ft 4 kts 168°
2026-05-07 13:19 51.47312 -0.46870 88 ft 16 kts 179°
2026-05-07 13:20 51.47190 -0.46867 87 ft 18 kts 179°
2026-05-07 13:20 51.47056 -0.46866 87 ft 20 kts 179°
2026-05-07 13:20 51.46908 -0.46863 87 ft 22 kts 179°
2026-05-07 13:20 51.46749 -0.46858 87 ft 23 kts 178°
2026-05-07 13:21 51.46659 -0.46994 87 ft 20 kts 276°
2026-05-07 13:21 51.46655 -0.47223 87 ft 21 kts 269°
2026-05-07 13:21 51.46654 -0.47454 87 ft 22 kts 270°
2026-05-07 13:21 51.46653 -0.47681 87 ft 19 kts 269°
2026-05-07 13:22 51.46652 -0.47887 87 ft 18 kts 271°
2026-05-07 13:22 51.46654 -0.48080 87 ft 16 kts 270°
2026-05-07 13:22 51.46653 -0.48251 87 ft 14 kts 270°
2026-05-07 13:22 51.46651 -0.48382 87 ft 11 kts 269°
2026-05-07 13:23 51.46649 -0.48493 87 ft 9 kts 268°
2026-05-07 13:23 51.46648 -0.48593 89 ft 8 kts 269°
2026-05-07 13:23 51.46648 -0.48682 89 ft 8 kts 270°
2026-05-07 13:23 51.46634 -0.48750 89 ft 6 kts 213°
2026-05-07 13:24 51.46599 -0.48771 90 ft 5 kts 198°
2026-05-07 13:24 51.46593 -0.48774 89 ft 0 kts 198°
2026-05-07 13:24 51.46578 -0.48782 87 ft 8 kts 198°
2026-05-07 13:25 51.46501 -0.48775 91 ft 13 kts 146°
2026-05-07 13:25 51.46477 -0.48641 88 ft 14 kts 90°
2026-05-07 13:25 51.46477 -0.48616 88 ft 0 kts 89°
2026-05-07 13:27 51.46477 -0.48613 88 ft 3 kts 89°
2026-05-07 13:27 51.46479 -0.48244 89 ft 71 kts 91°
2026-05-07 13:27 51.46483 -0.47083 87 ft 133 kts 89°
2026-05-07 13:28 51.46493 -0.45415 447 ft 150 kts 90°
2026-05-07 13:28 51.46510 -0.43738 1183 ft 151 kts 89°
2026-05-07 13:28 51.46497 -0.41971 1682 ft 170 kts 101°
2026-05-07 13:28 51.45926 -0.40190 2123 ft 192 kts 126°
2026-05-07 13:29 51.45079 -0.38422 2557 ft 214 kts 137°
2026-05-07 13:29 51.43691 -0.37246 3078 ft 234 kts 161°
2026-05-07 13:29 51.42132 -0.36395 3907 ft 239 kts 162°
2026-05-07 13:29 51.40512 -0.35777 4554 ft 252 kts 180°
2026-05-07 13:30 51.38774 -0.36373 5298 ft 261 kts 206°
2026-05-07 13:30 51.37129 -0.37691 5851 ft 267 kts 207°
2026-05-07 13:30 51.35361 -0.38638 6565 ft 271 kts 187°
2026-05-07 13:30 51.33487 -0.38414 7534 ft 274 kts 163°
2026-05-07 13:31 51.31787 -0.37016 8465 ft 277 kts 148°
2026-05-07 13:31 51.30160 -0.35338 9424 ft 280 kts 147°
2026-05-07 13:31 51.28521 -0.33616 10289 ft 285 kts 147°
2026-05-07 13:31 51.26798 -0.31809 10637 ft 308 kts 147°
2026-05-07 13:32 51.24936 -0.29867 10898 ft 332 kts 147°
2026-05-07 13:32 51.22935 -0.27787 11101 ft 355 kts 147°
2026-05-07 13:32 51.20800 -0.25574 11243 ft 376 kts 147°
2026-05-07 13:32 51.18574 -0.23275 11749 ft 385 kts 147°
2026-05-07 13:33 51.16310 -0.20939 12403 ft 390 kts 147°
2026-05-07 13:33 51.14025 -0.18581 13083 ft 394 kts 147°
2026-05-07 13:33 51.11711 -0.16197 13760 ft 398 kts 147°
2026-05-07 13:33 51.09373 -0.13800 14371 ft 402 kts 148°
2026-05-07 13:34 51.07011 -0.11381 14960 ft 405 kts 148°
2026-05-07 13:34 51.02227 -0.06478 16071 ft 413 kts 148°
2026-05-07 13:34 50.99802 -0.03996 16614 ft 417 kts 148°
2026-05-07 13:35 50.97354 -0.01497 17130 ft 420 kts 148°
2026-05-07 13:35 50.94922 0.00982 17639 ft 424 kts 148°
2026-05-07 13:35 50.92392 0.03558 18136 ft 427 kts 148°
2026-05-07 13:35 50.89913 0.06078 18583 ft 431 kts 149°
2026-05-07 13:36 50.87385 0.08646 19000 ft 433 kts 149°
2026-05-07 13:36 50.84838 0.11228 19410 ft 436 kts 149°
2026-05-07 13:36 50.82275 0.13822 19811 ft 439 kts 149°
2026-05-07 13:36 50.79695 0.16430 20195 ft 441 kts 149°
2026-05-07 13:37 50.77100 0.19052 20566 ft 444 kts 149°
2026-05-07 13:37 50.74492 0.21686 20940 ft 446 kts 149°
2026-05-07 13:37 50.71868 0.24332 21289 ft 449 kts 149°
2026-05-07 13:37 50.69230 0.26987 21621 ft 451 kts 149°
2026-05-07 13:38 50.66574 0.29656 21955 ft 453 kts 149°
2026-05-07 13:38 50.63908 0.32335 22292 ft 456 kts 149°
2026-05-07 13:38 50.61227 0.35020 22610 ft 458 kts 149°
2026-05-07 13:38 50.58533 0.37717 22923 ft 460 kts 149°
2026-05-07 13:39 50.55826 0.40425 23221 ft 462 kts 149°
2026-05-07 13:39 50.53105 0.43138 23509 ft 464 kts 149°
2026-05-07 13:39 50.50369 0.45860 23767 ft 466 kts 149°
2026-05-07 13:39 50.47633 0.48600 23992 ft 468 kts 147°
2026-05-07 13:40 50.45036 0.51715 24215 ft 471 kts 143°
2026-05-07 13:40 50.42479 0.54952 24424 ft 473 kts 143°
2026-05-07 13:40 50.39917 0.58184 24630 ft 474 kts 143°
2026-05-07 13:40 50.37343 0.61420 24822 ft 475 kts 143°
2026-05-07 13:41 50.34764 0.64657 25036 ft 474 kts 143°
2026-05-07 13:41 50.32186 0.67889 25089 ft 476 kts 143°
2026-05-07 13:41 50.29597 0.71134 25085 ft 477 kts 143°
2026-05-07 13:41 50.27007 0.74380 25079 ft 477 kts 143°
2026-05-07 13:42 50.24415 0.77625 25078 ft 477 kts 143°
2026-05-07 13:42 50.21818 0.80861 25076 ft 477 kts 143°
2026-05-07 13:42 50.19221 0.84088 25079 ft 477 kts 143°
2026-05-07 13:42 50.16624 0.87318 25083 ft 478 kts 143°
2026-05-07 13:43 50.14025 0.90554 24920 ft 478 kts 143°
2026-05-07 13:43 50.11440 0.93762 24307 ft 469 kts 143°
2026-05-07 13:43 50.08948 0.96854 24154 ft 447 kts 143°
2026-05-07 13:43 50.06541 0.99777 23868 ft 432 kts 147°
2026-05-07 13:44 50.03997 1.02135 23638 ft 423 kts 155°
2026-05-07 13:44 50.01358 1.04116 23402 ft 420 kts 156°
2026-05-07 13:44 49.98733 1.06092 23014 ft 418 kts 156°
2026-05-07 13:44 49.96127 1.08051 22633 ft 415 kts 156°
2026-05-07 13:45 49.93592 1.10179 22320 ft 415 kts 146°
2026-05-07 13:45 49.91481 1.13213 22049 ft 416 kts 130°
2026-05-07 13:45 49.89911 1.16978 21785 ft 416 kts 122°
2026-05-07 13:45 49.88448 1.20843 21516 ft 415 kts 121°
2026-05-07 13:46 49.87004 1.24704 21257 ft 413 kts 121°
2026-05-07 13:46 49.85570 1.28551 21003 ft 412 kts 121°
2026-05-07 13:46 49.84138 1.32389 20743 ft 410 kts 121°
2026-05-07 13:46 49.82727 1.36151 20485 ft 409 kts 121°
2026-05-07 13:47 49.81277 1.39996 20233 ft 407 kts 122°
2026-05-07 13:47 49.79845 1.43771 19981 ft 406 kts 122°
2026-05-07 13:47 49.78438 1.47479 19732 ft 404 kts 122°
2026-05-07 13:47 49.77018 1.51223 19482 ft 403 kts 122°
2026-05-07 13:48 49.75599 1.54956 19242 ft 402 kts 122°
2026-05-07 13:48 49.74185 1.58668 19003 ft 400 kts 122°
2026-05-07 13:48 49.72774 1.62368 18761 ft 399 kts 122°
2026-05-07 13:48 49.72297 1.63616 18678 ft 398 kts 122°
2026-05-07 13:49 49.71865 1.64747 18607 ft 398 kts 122°
2026-05-07 13:49 49.70824 1.67463 18428 ft 397 kts 122°
2026-05-07 13:49 49.69418 1.71127 18172 ft 396 kts 122°
2026-05-07 13:49 49.67992 1.74843 17895 ft 415 kts 122°
2026-05-07 13:50 49.66480 1.78778 17621 ft 434 kts 122°
2026-05-07 13:50 49.64910 1.82866 17347 ft 438 kts 122°
2026-05-07 13:50 49.63379 1.86847 17122 ft 437 kts 122°
2026-05-07 13:50 49.61829 1.90878 17061 ft 436 kts 122°
2026-05-07 13:51 49.60280 1.94902 17080 ft 437 kts 122°
2026-05-07 13:51 49.58727 1.98931 17076 ft 437 kts 122°
2026-05-07 13:51 49.57172 2.02954 17083 ft 437 kts 122°
2026-05-07 13:51 49.55612 2.06974 17083 ft 437 kts 122°
2026-05-07 13:52 49.54073 2.10923 16925 ft 438 kts 122°
2026-05-07 13:52 49.52511 2.14923 16452 ft 434 kts 122°
2026-05-07 13:52 49.50962 2.18888 15986 ft 431 kts 122°
2026-05-07 13:52 49.49425 2.22827 15527 ft 428 kts 122°
2026-05-07 13:53 49.47902 2.26735 15082 ft 425 kts 122°
2026-05-07 13:53 49.46387 2.30619 14637 ft 422 kts 122°
2026-05-07 13:53 49.44881 2.34471 14198 ft 420 kts 122°
2026-05-07 13:53 49.43379 2.38301 13751 ft 417 kts 122°
2026-05-07 13:54 49.41887 2.42098 13261 ft 414 kts 122°
2026-05-07 13:54 49.40403 2.45867 12780 ft 411 kts 122°
2026-05-07 13:54 49.38948 2.49549 12312 ft 408 kts 122°
2026-05-07 13:54 49.37480 2.53254 11850 ft 404 kts 122°
2026-05-07 13:55 49.36025 2.56929 11388 ft 401 kts 122°
2026-05-07 13:55 49.34582 2.60571 10940 ft 399 kts 122°
2026-05-07 13:55 49.33148 2.64189 10495 ft 394 kts 122°
2026-05-07 13:55 49.31748 2.67723 10079 ft 381 kts 122°
2026-05-07 13:56 49.30391 2.71148 9597 ft 371 kts 122°
2026-05-07 13:56 49.29069 2.74477 9143 ft 361 kts 122°
2026-05-07 13:56 49.27777 2.77717 8644 ft 352 kts 122°
2026-05-07 13:56 49.26512 2.80880 8167 ft 345 kts 122°
2026-05-07 13:57 49.25330 2.83835 7722 ft 338 kts 122°
2026-05-07 13:57 49.24113 2.86866 7275 ft 331 kts 122°
2026-05-07 13:57 49.22929 2.89812 7054 ft 318 kts 122°
2026-05-07 13:57 49.21803 2.92610 7049 ft 299 kts 124°
2026-05-07 13:58 49.20489 2.94889 7054 ft 280 kts 141°
2026-05-07 13:58 49.18862 2.96408 7057 ft 272 kts 158°
2026-05-07 13:58 49.17032 2.97168 6653 ft 277 kts 174°
2026-05-07 13:58 49.15137 2.97349 6484 ft 266 kts 176°
2026-05-07 13:59 49.13343 2.97520 6393 ft 252 kts 176°
2026-05-07 13:59 49.11636 2.97694 6284 ft 239 kts 176°
2026-05-07 13:59 49.10131 2.97853 6186 ft 228 kts 176°
2026-05-07 13:59 49.08591 2.98018 6082 ft 216 kts 176°
2026-05-07 14:00 49.07126 2.98153 5892 ft 211 kts 181°
2026-05-07 14:00 49.05730 2.97485 5533 ft 215 kts 217°
2026-05-07 14:00 49.04838 2.95767 5493 ft 203 kts 247°
2026-05-07 14:00 49.04586 2.93705 5276 ft 196 kts 265°
2026-05-07 14:01 49.04493 2.91648 5017 ft 193 kts 265°
2026-05-07 14:01 49.04397 2.89622 4766 ft 191 kts 265°
2026-05-07 14:01 49.04297 2.87609 4507 ft 190 kts 265°
2026-05-07 14:01 49.04199 2.85658 4255 ft 183 kts 265°
2026-05-07 14:02 49.04105 2.83810 4019 ft 176 kts 265°
2026-05-07 14:02 49.04013 2.82002 3809 ft 166 kts 265°
2026-05-07 14:02 49.03926 2.80295 3562 ft 157 kts 265°
2026-05-07 14:02 49.03843 2.78676 3355 ft 149 kts 266°
2026-05-07 14:03 49.03764 2.77127 3162 ft 144 kts 265°
2026-05-07 14:03 49.03686 2.75615 2961 ft 142 kts 266°
2026-05-07 14:03 49.03609 2.74118 2772 ft 141 kts 266°
2026-05-07 14:03 49.03532 2.72631 2584 ft 140 kts 266°
2026-05-07 14:04 49.03455 2.71148 2394 ft 140 kts 266°
2026-05-07 14:04 49.03403 2.70147 2262 ft 140 kts 266°
2026-05-07 14:04 49.03326 2.68668 2077 ft 140 kts 266°
2026-05-07 14:04 49.03224 2.66716 1829 ft 139 kts 266°
2026-05-07 14:05 49.03173 2.65741 1698 ft 139 kts 266°
2026-05-07 14:05 49.03071 2.63779 1447 ft 139 kts 266°
2026-05-07 14:05 49.03020 2.62811 1314 ft 138 kts 266°
2026-05-07 14:05 49.02943 2.61350 1114 ft 139 kts 266°
2026-05-07 14:06 49.02865 2.59884 933 ft 139 kts 266°
2026-05-07 14:06 49.02788 2.58418 742 ft 139 kts 267°
2026-05-07 14:06 49.02712 2.56954 523 ft 137 kts 268°
2026-05-07 14:06 49.02638 2.55521 406 ft 130 kts 268°
2026-05-07 14:07 49.02577 2.54405 392 ft 68 kts 263°
2026-05-07 14:07 49.02477 2.53978 393 ft 31 kts 238°
2026-05-07 14:07 49.02351 2.53699 390 ft 26 kts 225°
2026-05-07 14:07 49.02191 2.53580 386 ft 27 kts 208°
2026-05-07 14:08 49.02007 2.53558 388 ft 28 kts 174°
2026-05-07 14:08 49.01939 2.53564 388 ft 0 kts 181°
2026-05-07 14:08 49.01938 2.53564 388 ft 2 kts 181°
2026-05-07 14:09 49.01867 2.53562 388 ft 15 kts 181°
2026-05-07 14:09 49.01768 2.53574 387 ft 14 kts 171°
2026-05-07 14:09 49.01678 2.53594 387 ft 13 kts 173°
2026-05-07 14:09 49.01616 2.53636 386 ft 10 kts 92°
2026-05-07 14:10 49.01609 2.53732 386 ft 8 kts 110°
2026-05-07 14:10 49.01583 2.53803 386 ft 7 kts 117°
2026-05-07 14:10 49.01554 2.53837 386 ft 3 kts 137°
2026-05-07 14:10 49.01553 2.53863 386 ft 2 kts 78°
2026-05-07 14:11 49.01556 2.53877 386 ft 1 kts 85°
2026-05-07 14:11 49.01555 2.53883 386 ft 0 kts 89°
2026-05-07 14:11 49.01555 2.53890 386 ft 0 kts 92°
2026-05-07 14:11 49.01555 2.53892 386 ft 0 kts 91°